Wind_Speed
13 13 12 12 11 12 12 12 11 11 12 12 12 12 12 12 11 11 12 12 11 10 10 10 10 10 9 9 8 8 8 7 7 6 5 5 4 5 4 4 4 4 4
13 12 12 11 11 11 12 11 10 11 11 11 12 12 11 11 11 11 11 11 11 10 10 9 9 9 9 9 8 8 7 7 6 6 5 5 5 5 4 4 4 4 4
12 12 11 11 11 11 11 11 10 11 11 12 11 11 11 11 10 10 10 10 10 9 10 10 9 9 9 9 8 7 7 7 6 6 5 4 4 4 4 4 4 4 4
12 11 11 10 10 10 10 10 10 10 10 11 11 10 11 10 10 10 9 9 9 10 10 10 10 9 9 8 8 7 7 6 6 6 5 4 4 4 4 4 3 4 4
12 11 11 10 10 10 9 9 9 9 11 11 11 10 10 10 10 9 9 9 9 9 9 10 9 9 8 8 8 7 6 6 5 5 4 4 4 3 3 3 4 4 4
12 11 10 10 10 10 10 9 8 8 9 10 10 9 9 9 8 9 9 9 9 9 9 9 9 8 8 7 6 6 6 5 4 3 3 3 4 3 3 3 4 4 4
13 11 11 10 10 9 9 9 8 8 8 9 9 9 9 9 8 9 8 8 8 9 8 8 8 8 7 6 6 6 5 4 4 3 3 3 3 3 3 3 3 3 4
13 11 11 11 10 9 9 9 8 8 7 8 8 9 8 8 8 7 7 7 8 8 8 8 7 7 6 6 6 5 5 4 4 4 3 3 3 3 3 3 3 3 3
14 12 11 10 10 9 9 8 8 8 7 7 7 7 7 7 7 7 7 7 7 8 7 7 6 6 6 5 5 5 4 4 4 4 3 3 3 3 3 3 3 3 3
14 13 12 11 10 10 9 8 7 6 6 6 7 6 7 7 6 6 6 6 6 6 6 6 5 5 4 4 4 5 4 4 4 4 3 3 3 3 3 2 2 2 2
14 13 12 11 10 9 9 8 7 6 6 5 5 6 6 6 6 5 5 5 6 6 5 5 4 4 4 4 4 4 4 3 3 3 3 3 2 2 2 2 2 2 2
13 13 13 12 11 10 9 8 8 7 6 5 4 5 5 5 5 4 4 5 5 5 4 4 4 4 4 4 4 4 3 3 3 3 3 3 2 2 2 2 2 2 2
13 13 13 12 12 11 10 9 8 7 6 5 4 4 4 4 4 4 4 4 4 4 3 4 4 4 3 3 3 3 3 3 3 3 2 2 2 2 1 1 2 2 1
12 13 12 12 12 11 10 9 8 7 7 6 5 4 4 4 4 3 2 3 3 3 3 3 3 3 3 3 3 3 3 3 3 2 2 2 2 2 1 1 2 2 1
12 12 12 11 11 11 10 10 9 8 7 6 5 4 3 3 3 3 3 3 2 2 2 2 2 2 2 2 2 2 2 2 2 1 1 1 1 1 1 1 2 2 1
11 12 12 11 11 10 10 9 9 8 7 6 5 4 3 2 2 2 2 1 2 2 1 1 2 2 1 1 1 1 1 1 1 0 1 1 1 1 1 1 1 0 0
11 11 11 11 10 10 10 9 9 8 7 6 5 4 3 2 2 1 1 1 1 0 0 1 1 1 1 0 1 1 1 0 0 1 1 1 0 0 0 1 1 1 0
11 11 11 12 11 10 10 10 9 7 7 6 5 4 4 4 2 2 1 1 1 1 1 1 1 1 1 1 1 1 1 1 1 2 1 1 1 1 2 2 2 2 2
10 10 11 11 11 10 9 9 9 8 7 6 5 4 4 4 4 2 1 1 2 2 1 1 1 1 1 1 1 1 2 2 2 2 2 2 2 2 2 3 4 4 4
10 10 10 10 10 10 9 9 9 9 8 7 6 5 5 4 3 3 2 1 1 2 2 1 1 1 1 1 1 1 2 2 2 2 2 3 2 3 3 4 5 5 5
9 9 10 10 10 9 8 8 9 9 8 7 7 6 6 5 4 3 2 1 1 1 1 1 1 1 2 2 2 2 2 2 2 3 3 3 3 4 5 5 5 5 4
9 9 10 9 10 10 8 8 8 9 8 8 7 6 6 6 4 3 2 2 1 2 2 1 1 2 3 3 3 3 3 3 3 4 4 4 5 5 6 6 5 5 5
9 9 10 10 10 10 9 8 9 9 9 9 8 7 7 6 4 3 3 2 1 1 1 2 2 2 2 3 4 4 4 4 4 4 5 5 5 6 6 6 6 6 6
9 9 10 10 10 9 9 9 9 9 9 8 8 7 7 7 5 4 3 3 2 2 2 2 3 3 4 4 4 5 5 4 5 5 6 6 6 6 6 7 7 8 8
11 10 9 10 10 10 10 10 9 9 9 8 7 7 7 6 5 5 4 4 4 3 3 3 4 4 4 5 5 5 5 5 5 6 6 7 8 7 7 7 8 8 9
13 11 10 10 10 10 10 10 9 9 9 9 8 7 6 6 5 6 5 5 4 3 3 4 4 5 5 5 5 5 6 6 6 7 7 8 8 9 9 8 8 8 9
Wind_Direction
63 62 65 70 76 83 87 87 90 95 99 99 101 101 100 100 102 108 110 109 110 114 116 124 126 124 124 117 120 125 125 125 123 124 123 119 122 124 130 137 126 118 118
63 62 62 66 73 77 85 86 91 97 101 102 102 104 102 99 100 105 107 110 111 114 115 120 120 119 120 118 119 122 121 119 122 125 122 118 119 118 126 125 120 117 117
63 62 62 67 72 75 80 81 87 96 102 104 105 106 103 104 105 106 108 111 113 114 114 115 120 121 119 118 114 113 116 119 115 116 113 105 113 104 106 113 119 120 124
63 64 61 67 71 77 82 85 86 92 102 106 106 111 106 110 110 109 110 113 112 113 114 114 117 118 119 117 113 107 111 117 114 109 103 97 93 89 99 111 121 130 132
62 63 63 66 69 72 76 81 84 87 99 104 104 108 107 109 110 113 115 118 116 117 115 113 112 114 115 117 113 113 114 113 113 106 96 88 87 91 104 113 120 131 135
59 60 63 66 69 70 72 75 80 87 97 102 106 109 111 109 109 114 117 122 123 119 116 112 111 115 115 115 117 118 114 112 111 104 100 95 92 94 106 111 114 120 130
58 59 60 64 69 73 74 76 83 91 95 101 108 114 111 108 111 111 116 122 122 120 114 111 111 115 121 117 118 117 112 111 115 111 104 102 104 96 102 106 110 116 128
57 58 59 62 66 71 72 74 81 91 93 103 110 113 113 108 105 104 112 114 117 115 110 109 108 110 109 108 111 113 108 103 109 108 108 108 102 93 95 104 110 118 133
55 56 58 60 61 65 67 72 77 80 82 91 101 107 114 112 108 103 103 103 108 109 109 113 114 108 105 110 111 109 109 105 110 108 117 118 110 95 96 104 114 116 128
54 55 57 59 58 60 63 64 69 69 71 86 96 103 109 111 110 109 108 106 106 109 113 116 116 109 113 113 108 109 102 100 106 106 113 123 112 98 99 111 120 114 123
53 54 54 56 57 57 59 60 65 69 73 87 95 102 112 114 112 112 114 113 112 113 118 120 121 116 115 112 110 107 108 105 107 105 113 109 106 105 96 103 103 109 122
51 52 53 55 56 54 54 54 58 64 69 78 93 102 109 113 110 110 116 118 117 116 118 127 126 122 117 115 113 102 100 102 101 104 111 107 105 108 88 90 82 93 100
48 47 49 52 53 53 54 54 57 59 62 70 83 94 101 105 106 111 121 122 121 121 119 126 131 132 121 113 115 100 97 103 91 92 92 85 86 86 87 86 71 86 93
44 43 44 47 49 50 51 52 55 55 58 63 70 76 84 90 89 100 133 131 126 121 117 117 128 130 122 116 108 103 101 104 93 88 84 78 67 70 68 70 82 95 106
39 38 38 40 43 46 48 49 51 51 53 53 59 64 69 73 82 82 101 114 120 121 122 129 135 137 128 119 115 111 111 126 108 78 63 49 60 54 43 69 112 103 110
33 32 33 36 38 40 42 40 40 42 42 47 56 60 53 51 70 79 86 87 86 91 105 135 156 161 156 134 145 166 164 160 151 101 1 25 57 61 32 61 92 75 34
28 28 31 32 33 34 35 35 33 37 39 38 47 51 41 32 42 58 75 52 53 44 132 171 169 209 220 224 203 211 217 217 247 277 299 351 276 242 265 266 288 285 250
23 23 26 27 27 28 30 31 28 29 28 29 37 40 29 28 33 20 340 328 319 313 274 210 211 232 198 193 226 218 258 301 293 282 280 275 275 279 260 255 267 275 261
16 15 16 19 22 22 22 25 24 23 20 21 22 18 14 19 21 18 355 329 313 303 286 278 261 238 196 167 209 234 274 293 299 302 276 264 276 284 273 264 267 267 263
6 7 8 10 13 15 18 19 18 18 15 14 9 359 1 6 8 3 360 324 313 315 296 283 288 228 202 204 227 248 279 294 300 317 302 283 283 282 276 268 265 268 270
356 358 359 360 2 5 10 12 12 10 7 4 2 359 355 354 349 344 349 338 301 321 308 286 266 239 228 237 258 267 281 304 308 318 313 308 305 301 289 281 270 271 277
342 344 347 350 356 357 359 2 3 0 357 357 357 358 353 348 340 330 328 341 326 297 284 281 266 257 255 252 267 273 280 294 298 305 308 302 302 303 301 292 289 284 287
335 339 342 343 345 352 355 353 352 351 347 346 346 346 346 347 341 332 329 321 333 281 271 272 262 268 264 260 269 281 287 291 297 300 302 300 302 300 297 293 293 285 282
323 330 334 338 343 347 350 347 345 345 344 342 344 340 334 333 331 327 318 317 330 306 275 279 276 269 273 276 276 279 285 287 296 297 296 299 299 298 297 297 296 289 285
315 319 325 330 333 337 339 338 338 342 344 341 338 333 335 335 324 325 318 314 305 304 289 279 278 282 282 283 283 282 282 282 286 288 293 295 298 295 292 291 287 284 285
310 311 318 323 325 327 331 333 337 338 338 333 328 326 323 327 321 322 320 313 300 297 296 293 291 288 286 284 281 281 283 283 286 289 293 294 297 295 296 293 286 282 284
Height
5892 5891 5889 5889 5887 5886 5885 5884 5883 5883 5883 5883 5883 5883 5883 5883 5883 5883 5884 5884 5884 5885 5885 5886 5887 5887 5888 5889 5889 5890 5891 5892 5892 5893 5893 5894 5894 5894 5894 5894 5894 5894 5894
5894 5892 5891 5890 5889 5888 5887 5886 5885 5884 5884 5884 5884 5884 5885 5885 5885 5885 5885 5886 5886 5886 5887 5887 5888 5889 5889 5890 5891 5891 5892 5893 5893 5894 5894 5894 5894 5894 5894 5894 5895 5895 5895
5896 5894 5893 5892 5891 5890 5889 5888 5887 5886 5886 5886 5886 5886 5886 5886 5886 5886 5887 5887 5887 5888 5888 5889 5889 5890 5891 5892 5892 5893 5893 5894 5894 5895 5895 5895 5895 5895 5895 5895 5895 5895 5895
5898 5897 5896 5894 5893 5892 5891 5890 5889 5888 5887 5887 5888 5888 5888 5888 5888 5888 5888 5888 5889 5889 5890 5890 5891 5891 5892 5893 5893 5894 5894 5895 5895 5896 5896 5896 5896 5896 5895 5895 5896 5896 5896
5900 5898 5897 5896 5895 5894 5893 5892 5891 5890 5890 5889 5890 5889 5889 5889 5889 5889 5890 5890 5891 5891 5891 5892 5892 5892 5893 5894 5894 5895 5895 5895 5896 5896 5896 5896 5896 5896 5896 5896 5896 5896 5896
5902 5900 5899 5898 5897 5896 5895 5894 5893 5892 5892 5891 5891 5891 5891 5891 5891 5891 5891 5891 5892 5893 5893 5893 5894 5894 5894 5895 5895 5896 5896 5896 5897 5897 5897 5897 5897 5897 5897 5897 5897 5897 5897
5903 5902 5901 5900 5899 5898 5896 5895 5895 5894 5894 5893 5893 5893 5893 5893 5892 5893 5893 5893 5894 5894 5894 5895 5895 5895 5896 5896 5896 5897 5897 5897 5897 5898 5898 5898 5898 5898 5898 5898 5897 5897 5897
5906 5904 5903 5902 5901 5900 5898 5897 5896 5895 5895 5894 5894 5894 5894 5894 5894 5894 5894 5894 5895 5895 5895 5896 5896 5897 5897 5897 5897 5898 5898 5898 5898 5898 5898 5899 5898 5898 5898 5898 5898 5898 5898
5908 5906 5905 5904 5902 5901 5900 5899 5898 5897 5896 5896 5896 5896 5896 5896 5896 5896 5896 5896 5896 5897 5897 5897 5898 5898 5898 5898 5898 5899 5899 5899 5899 5899 5899 5899 5899 5899 5899 5899 5899 5899 5898
5910 5908 5907 5905 5904 5903 5902 5901 5900 5899 5898 5898 5897 5897 5897 5897 5897 5897 5897 5898 5898 5898 5898 5899 5899 5899 5899 5899 5899 5899 5900 5900 5900 5899 5899 5899 5899 5899 5899 5899 5899 5899 5899
5912 5910 5909 5907 5906 5905 5903 5902 5901 5900 5900 5899 5899 5898 5898 5898 5898 5899 5899 5899 5899 5899 5899 5900 5900 5900 5900 5900 5900 5900 5900 5900 5900 5900 5900 5900 5900 5900 5900 5899 5899 5899 5899
5914 5913 5911 5909 5908 5906 5905 5904 5903 5902 5901 5901 5900 5900 5900 5899 5899 5899 5899 5900 5900 5900 5900 5900 5900 5900 5901 5901 5901 5900 5900 5900 5900 5900 5900 5900 5900 5900 5900 5900 5900 5900 5899
5916 5915 5913 5911 5910 5908 5907 5905 5904 5903 5902 5902 5901 5901 5901 5900 5900 5900 5900 5900 5901 5901 5901 5901 5901 5901 5901 5901 5901 5901 5901 5901 5901 5901 5901 5901 5901 5900 5900 5900 5900 5900 5900
5918 5916 5915 5913 5911 5910 5908 5907 5906 5905 5904 5903 5903 5902 5902 5902 5901 5901 5901 5901 5901 5901 5901 5901 5901 5901 5901 5901 5901 5901 5901 5902 5902 5901 5901 5901 5901 5901 5900 5900 5900 5900 5900
5920 5918 5916 5915 5913 5911 5910 5908 5907 5906 5905 5904 5904 5903 5903 5902 5902 5902 5902 5902 5902 5902 5902 5902 5902 5902 5902 5902 5902 5902 5902 5902 5902 5902 5901 5901 5901 5901 5901 5901 5901 5900 5900
5922 5920 5918 5916 5914 5912 5911 5909 5908 5907 5906 5905 5904 5904 5903 5903 5903 5902 5902 5902 5902 5902 5902 5902 5902 5902 5902 5902 5902 5902 5902 5902 5902 5902 5902 5901 5901 5901 5901 5901 5901 5901 5900
5923 5921 5919 5917 5915 5913 5912 5910 5909 5908 5907 5906 5905 5905 5904 5903 5903 5903 5903 5903 5903 5902 5902 5902 5902 5902 5903 5903 5903 5903 5902 5902 5902 5902 5902 5901 5901 5901 5901 5901 5901 5901 5900
5924 5922 5920 5918 5916 5915 5913 5911 5910 5909 5908 5907 5906 5905 5904 5904 5903 5903 5903 5903 5903 5903 5902 5902 5902 5903 5903 5903 5902 5902 5902 5902 5902 5902 5901 5901 5901 5901 5901 5901 5900 5900 5900
5925 5923 5921 5919 5917 5915 5913 5912 5911 5909 5908 5907 5906 5905 5905 5904 5904 5903 5903 5903 5903 5903 5903 5902 5903 5902 5902 5902 5902 5902 5902 5902 5902 5901 5901 5901 5900 5900 5900 5900 5899 5899 5899
5925 5923 5921 5919 5917 5916 5914 5912 5911 5910 5908 5907 5906 5906 5905 5904 5904 5903 5903 5903 5902 5902 5902 5902 5902 5902 5902 5902 5902 5902 5902 5902 5902 5901 5901 5900 5900 5900 5899 5899 5898 5898 5898
5925 5924 5922 5920 5918 5916 5914 5913 5911 5910 5909 5908 5907 5906 5905 5904 5904 5903 5903 5902 5902 5902 5902 5902 5902 5902 5902 5902 5902 5902 5902 5902 5901 5901 5900 5900 5899 5899 5899 5898 5897 5897 5897
5925 5924 5922 5920 5918 5916 5914 5913 5912 5911 5909 5908 5907 5906 5905 5904 5903 5903 5902 5902 5901 5901 5901 5902 5902 5902 5902 5902 5902 5902 5902 5902 5901 5900 5900 5899 5899 5898 5898 5897 5897 5896 5896
5925 5924 5922 5920 5918 5917 5915 5914 5912 5911 5910 5908 5907 5906 5905 5904 5903 5903 5902 5902 5901 5901 5901 5901 5901 5901 5901 5902 5901 5901 5901 5901 5900 5900 5899 5898 5898 5897 5897 5896 5896 5895 5895
5925 5923 5921 5920 5918 5917 5915 5914 5912 5911 5910 5908 5907 5906 5905 5904 5903 5903 5902 5901 5901 5901 5901 5901 5900 5901 5901 5901 5900 5900 5900 5900 5899 5899 5898 5897 5897 5896 5895 5895 5894 5894 5893
5924 5922 5921 5919 5918 5916 5915 5913 5911 5910 5909 5908 5907 5905 5904 5903 5903 5902 5902 5901 5901 5900 5900 5900 5900 5900 5900 5900 5899 5899 5899 5898 5898 5897 5897 5896 5895 5895 5894 5893 5893 5892 5891
5923 5921 5919 5918 5917 5915 5914 5912 5911 5910 5908 5907 5906 5905 5904 5903 5902 5902 5901 5900 5900 5900 5900 5899 5899 5899 5899 5899 5898 5898 5898 5897 5896 5896 5895 5894 5894 5893 5892 5891 5891 5890 5889